[Iaude] MPEC F100: 2022 FU2 [a=2.18,e=0.44,i=12.6,H=21.7]

mpec at marsden.cfa.harvard.edu mpec at marsden.cfa.harvard.edu
Sun Mar 27 18:51:26 EDT 2022


M.P.E.C. 2022-F100                               Issued 2022 March 27, 22:50 UT

     The Minor Planet Electronic Circulars contain information on unusual
         minor planets and routine data on comets.  They are published
    on behalf of Division F of the International Astronomical Union by the
          Minor Planet Center, Smithsonian Astrophysical Observatory,
                          Cambridge, MA 02138, U.S.A.

             Prepared using the Tamkin Foundation Computer Network

                              MPC at CFA.HARVARD.EDU
            URL https://www.minorplanetcenter.net/    ISSN 1523-6714

                                    2022 FU2                                    


Observations:
     K22F02U* C2022 03 25.61412615 32 04.599+15 36 16.12         21.27wUEF100F52
     K22F02U  C2022 03 25.62116915 32 04.621+15 36 05.90         21.02wUEF100F52
     K22F02U  C2022 03 25.62813615 32 04.575+15 35 55.80         21.11GVEF100F52
     K22F02U  C2022 03 25.63512615 32 04.563+15 35 45.91         21.55GVEF100F52
     K22F02U 1C2022 03 26.11770 15 32 09.40 +15 24 11.5          21.5 VXEF100033
     K22F02U 1C2022 03 26.12018 15 32 09.44 +15 24 08.5          21.6 VXEF100033
     K22F02U 1C2022 03 26.12267 15 32 09.42 +15 24 04.7          21.7 VXEF100033
     K22F02U KC2022 03 26.32495615 32 11.51 +15 19 20.5          21.2 VuEF100H21
     K22F02U KC2022 03 26.33054815 32 11.51 +15 19 12.3          21.9 VuEF100H21
     K22F02U KC2022 03 26.33287815 32 11.49 +15 19 08.8          21.5 VuEF100H21
     K22F02U KC2022 03 26.38299 15 32 11.57 +15 17 58.0          20.9 RqEF100H36
     K22F02U KC2022 03 26.39883 15 32 11.58 +15 17 34.8          21.1 RqEF100H36
     K22F02U KC2022 03 27.33465915 32 16.05 +14 55 07.4          21.1 VuEF100H21
     K22F02U KC2022 03 27.34025015 32 16.03 +14 54 59.2          21.1 VuEF100H21
     K22F02U KC2022 03 27.34304615 32 16.04 +14 54 55.5          21.0 VuEF100H21
     K22F02U KC2022 03 27.34313715 32 16.57 +14 54 56.7          21.34GVEF100I52
     K22F02U KC2022 03 27.34543815 32 16.54 +14 54 54.8          21.13GVEF100I52
     K22F02U KC2022 03 27.34584115 32 16.01 +14 54 51.1          21.0 VuEF100H21
     K22F02U KC2022 03 27.34773915 32 16.55 +14 54 50.1          21.25GVEF100I52
     K22F02U KC2022 03 27.44987 15 32 15.89 +14 52 23.0          20.7 RoEF100691
     K22F02U KC2022 03 27.46436 15 32 15.81 +14 52 02.0          21.6 RoEF100691
     K22F02U KC2022 03 27.47884 15 32 15.77 +14 51 40.7          20.8 RoEF100691
     K22F02U ^C2022 03 27.50907415 32 16.619+14 51 01.34         21.33GVEF100568
     K22F02U ^C2022 03 27.51168415 32 16.597+14 50 57.73         20.99GVEF100568
     K22F02U ^C2022 03 27.51346415 32 16.588+14 50 54.82         21.26GVEF100568
     K22F02U ^C2022 03 27.51522415 32 16.581+14 50 52.45         21.23GVEF100568
     K22F02U ^C2022 03 27.56988715 32 16.104+14 49 32.98         21.39GVEF100568
     K22F02U ^C2022 03 27.57160715 32 16.087+14 49 30.47         21.22GVEF100568
     K22F02U ^C2022 03 27.57317715 32 16.076+14 49 28.23         21.21GVEF100568
     K22F02U ^C2022 03 27.57427715 32 16.058+14 49 26.67         20.79GVEF100568
     K22F02U ^C2022 03 27.57662715 32 16.046+14 49 23.23         21.32GVEF100568
     K22F02U ^C2022 03 27.57881715 32 16.024+14 49 20.14         21.23GVEF100568

Observer details:
033 Karl Schwarzschild Observatory, Tautenburg.  Observers S. Melnikov, C.
    Hoegner, U. Laux, F. Ludwig, B. Stecklum.  Measurer B. Stecklum.  1.34-m
    f/3 Schmidt + CCD.
568 Mauna Kea.  Observers J. Fairlamb, Y. Ramanjooloo.  Measurers R. Weryk, Y.
    Ramanjooloo, R. Wainscoat.  2.24-m University of Hawaii reflector + CCD.
691 Steward Observatory, Kitt Peak-Spacewatch.  Observer R. A. Mastaler.
    0.9-m f/3 reflector + CCD.
F52 Pan-STARRS 2, Haleakala.  Observers J. Bulger, T. Lowe, A. Schultz, I.
    Smith, K. Chambers, T. Dukes.  Measurers K. Chambers, S. Chastel, T. de
    Boer, J. Fairlamb, H. Gao, M. Huber, C.-C. Lin, E. Magnier, Y.
    Ramanjooloo, R. Wainscoat, R. Weryk.  1.8-m Ritchey-Chretien + CCD.
H21 Astronomical Research Observatory, Westfield.  Observer R. Holmes.
    Measurers T. Linder, R. Holmes, L. Horn.  0.76-m f/3.0 astrograph + CCD.
H36 Sandlot Observatory, Scranton.  Observer G. Hug.  0.56-m reflector + CCD.
I52 Steward Observatory, Mt. Lemmon Station.  Observer H. Groeller.  Measurers
    E. J. Christensen, G. A. Farneth, J. B. Fazekas, D. C. Fuls, A. R. Gibbs,
    A. D. Grauer, H. Groeller, J. K. Hogan, R. A. Kowalski, S. M. Larson, G.
    J. Leonard, D. Rankin, R. L. Seaman, A. Serrano, F. C. Shelly, K. W.
    Wierzchos.

Orbital elements:
2022 FU2                                                 Earth MOID = 0.3025 AU
Epoch 2022 Jan. 21.0 TT = JDT 2459600.5                 Veres                   
M 349.39333              (2000.0)            P               Q                  
n   0.30684184     Peri.  109.02698     -0.95761439     -0.21971257             
a   2.1770062      Node    58.67420     +0.10257538     -0.86440349             
e   0.4434103      Incl.   12.59580     +0.26917088     -0.45225324             
P   3.21           H   21.70          G   0.15           U   9                  
Residuals in seconds of arc
220325 F52  0.2+  0.2+    220326 H36  0.4+  0.6-    220327 568  0.1-  0.0
220325 F52  0.5+  0.0     220327 H21  0.2-  0.2+    220327 568  0.1-  0.2+
220325 F52  0.2-  0.2-    220327 H21  0.1-  0.1+    220327 568  0.0   0.2-
220325 F52  0.4-  0.1-    220327 H21  0.3+  0.4+    220327 568  0.1+  0.0
220326 033  0.1-  0.2+    220327 I52  0.1-  0.1+    220327 568  0.0   0.1-
220326 033  0.4+  0.8+    220327 I52 (0.4-  1.5+)   220327 568  0.0   0.1-
220326 033  0.1+  0.5+    220327 H21  0.1+  0.0     220327 568  0.0   0.1-
220326 H21  0.4+  0.1+    220327 I52  0.1-  0.1+    220327 568  0.1-  0.0
220326 H21  0.5+  0.2-    220327 691  0.4-  0.0     220327 568  0.0   0.0
220326 H21  0.2+  0.4-    220327 691  0.0   0.1+    220327 568  0.0   0.1+
220326 H36  0.2-  0.0     220327 691  0.9+  0.0

Ephemeris:
2022 FU2                 a,e,i = 2.18, 0.44, 13                  q = 1.2117
Date    TT    R. A. (2000) Decl.     Delta      r    Elong.  Phase     V
2022 02 25    14 57 12.1 +24 19 27   0.3949  1.2117   115.2    47.7    21.9
...
2022 03 12    15 22 54.2 +20 19 48   0.3694  1.2223   120.3    44.6    21.7
...
2022 03 20    15 29 57.8 +17 41 46   0.3585  1.2358   124.8    41.4    21.6
...
2022 03 26    15 32 08.5 +15 27 14   0.3520  1.2494   129.0    38.3    21.5
2022 03 27    15 32 14.6 +15 03 23   0.3511  1.2519   129.8    37.7    21.4
2022 03 28    15 32 16.3 +14 39 07   0.3503  1.2545   130.6    37.1    21.4
...
2022 04 03    15 30 55.4 +12 04 23   0.3465  1.2716   135.9    33.2    21.3
...
2022 04 11    15 25 27.9 +08 14 04   0.3464  1.2983   144.0    27.0    21.2
...
2022 04 26    15 07 37.0 +00 12 54   0.3674  1.3584   160.8    14.1    21.0

M. P. C. Staff               (C) Copyright 2022 MPC           M.P.E.C. 2022-F100




More information about the Iaude mailing list